Regional Weather Roundup
Issued by NWS

Home | Current Version | Previous Version | Text Only | Print | Product List | Glossary On
Versions: 1 2 3 4 5 6 7 8 9 10 11 12 13 14 15 16 17 18 19 20 21 22 23 24 25 26 27 28 29 30 31 32 33 34 35 36 37 38 39 40 41 42 43 44 45 46 47 48 49 50
457
ASUS43 KDTX 181610
RWRMI
MICHIGAN HOURLY REGIONAL WEATHER ROUNDUP
NATIONAL WEATHER SERVICE DETROIT/PONTIAC MI
1100 AM EST WED JAN 18 2017

NOTE: "FAIR" INDICATES FEW OR NO CLOUDS BELOW 12,000 FEET WITH NO
SIGNIFICANT WEATHER AND/OR OBSTRUCTION TO VISIBILITY.

MIZ047>049-052>055-059>063-066>070-074>076-081>083-181700-
SOUTHEAST LOWER MICHIGAN

CITY           SKY/WX    TMP DP  RH WIND       PRES   REMARKS
ADRIAN         CLOUDY    36  35  96 W7        30.12R WCI  30
ALMA           CLOUDY    36  35  97 W8        30.06S FOG     WCI  30
ANN ARBOR      CLOUDY    37  36  96 W10       30.09R WCI  30
BAD AXE        CLOUDY    35  35 100 W7        30.02S FOG     WCI  29
CARO           CLOUDY    36  36  99 W8        30.03S FOG     WCI  30
DETROIT CITY   CLOUDY    37  36  93 W8        30.08R WCI  31
DETROIT        CLOUDY    39  35  86 W9        30.10R WCI  33
FLINT          CLOUDY    37  35  92 W10       30.06S FOG     WCI  30
GROSSE ILE     CLOUDY    38  35  89 W8        30.08R WCI  32
HILLSDALE      CLOUDY    34  34 100 W10       30.10R FOG     WCI  26
HOWELL         CLOUDY    36  35  95 W10       30.07R FOG     WCI  28

CITY           SKY/WX    TMP DP  RH WIND       PRES   REMARKS
JACKSON        CLOUDY    37  34  89 W12       30.09R WCI  29
LAMBERTVILLE   CLOUDY    38  35  89 W8        30.12R FOG     WCI  32
LANSING        CLOUDY    37  33  85 W14       30.09R FOG     WCI  28
LAPEER         CLOUDY    36  36  99 W6        30.05R FOG     WCI  31
MASON          CLOUDY    36  36  99 W9G16     30.08S FOG     WCI  29
MONROE         CLOUDY    37  36  96 W10       30.10R WCI  30
MT. CLEMENS    CLOUDY    39  37  93 W7        30.05R WCI  34
PONTIAC        CLOUDY    36  34  92 W10       30.05R FOG     WCI  28
PORT HOPE        N/A     35  34  96 VRB3      30.00F
PORT HURON     CLOUDY    36  36 100 W3        30.05R FOG
TRI CITIES     FOG       36  36 100 W9        30.04F VSB 1/2 WCI  29
MIDLAND        CLOUDY    37  35  93 W8        30.04S WCI  30
TROY           CLOUDY    38  35  87 W12       30.09R WCI  31
SAGINAW HB     CLOUDY    36  34  93 SW8       30.04S FOG     WCI  29
$$
MIZ043>046-050>051-056>058-064>065-071>073-077>080-181700-
SOUTHWEST LOWER MICHIGAN

CITY           SKY/WX    TMP DP  RH WIND       PRES   REMARKS
BATTLE CREEK   CLOUDY    37  36  96 W9        30.11R FOG     WCI  30
BENTON HARBOR  CLOUDY    37  35  92 W9        30.14S WCI  30
BIG RAPIDS     CLOUDY    35  34  96 SW7       30.04R FOG     WCI  29
COLDWATER      CLOUDY    36  36 100 W9        30.12R FOG     WCI  29
FREMONT        FOG       36  36 100 SW6       30.06R VSB 1/2 WCI  31
HOLLAND        CLOUDY    38  35  89 W12       30.10S WCI  30
GRAND RAPIDS   CLOUDY    37  35  92 W10       30.09R FOG     WCI  30
IONIA          CLOUDY    36  35  97 W14       30.08R FOG     WCI  27
KALAMAZOO      CLOUDY    37  34  89 W10       30.12R FOG     WCI  30
LUDINGTON      FOG       34  34 100 SW10      30.06R VSB 1/4 WCI  26
MARSHALL       CLOUDY    37  36  97 W12G17    30.10S FOG     WCI  29
MOUNT PLEASANT CLOUDY    36  35  96 W7        30.04R WCI  30
MUSKEGON       CLOUDY    39  36  89 SW12      30.08S WCI  32
SOUTH HAVEN    CLOUDY    37  36  96 W8        30.12F WCI  30
$$
MIZ016>042-181700-
NORTHERN LOWER MICHIGAN

CITY           SKY/WX    TMP DP  RH WIND       PRES   REMARKS
ALPENA         CLOUDY    34  32  92 SW9       29.97F WCI  27
BEAVER ISLAND  CLOUDY    35  35  98 SW14G21   29.94R WCI  26
BELLAIRE       CLOUDY    34  34 100 S7        30.00S WCI  28
CADILLAC       CLOUDY    33  32  96 SW10      29.99S FOG     WCI  25
CHARLEVOIX     CLOUDY    34  34 100 SW8       30.00R WCI  27
FRANKFORT      FOG       34  34 100 SW9G17    30.01S VSB 1/2 WCI  27
GAYLORD        CLOUDY    34  31  88 SW10      29.95F FOG     WCI  26
GRAYLING       CLOUDY    33  33  99 SW8       29.99S FOG     WCI  26
HARBOR SPRINGS CLOUDY    33  33  99 SW9       29.96S WCI  25
HOUGHTON LAKE  CLOUDY    33  32  96 W9        30.00S FOG     WCI  25
MANISTEE       LGT RAIN  36  34  93 S5        30.03S VSB 1/4 WCI  32
OSCODA         CLOUDY    36  35  96 W8        29.99S WCI  30
PELLSTON       CLOUDY    34  32  92 SW9       29.95F WCI  27
ROGERS CITY    CLOUDY    33  32  96 SW8       29.96F WCI  26
TRAVERSE CITY  CLOUDY    37  34  89 SW9       29.99F WCI  30
$$
MIZ007>008-015-181700-
EASTERN UPPER MICHIGAN

CITY           SKY/WX    TMP DP  RH WIND       PRES   REMARKS
KINROSS        CLOUDY    33  31  92 SW7G16    29.91F WCI  27
MACKINAC ISLAN CLOUDY    33  33 100 SW9G17    29.92F WCI  25
NEWBERRY       FOG       32  31  97 S18       29.88R VSB 1/2 WCI  20
S. S. MARIE    CLOUDY    33  30  88 S9        29.90F WCI  25
MUNISING         N/A     35  30  82 SW14      29.85F WCI  26
$$
MIZ004>006-011>014-085-181700-
CENTRAL UPPER MICHIGAN

CITY           SKY/WX    TMP DP  RH WIND       PRES   REMARKS
MANISTIQUE     CLOUDY    31  31  99 SW9       29.92R FOG     WCI  23
ESCANABA       CLOUDY    34  32  92 SW12      29.94R WCI  25
SAWYER-GWINN   SUNNY     28  27  93 SW9       29.85F WCI  20
$$
MIZ001>003-009>011-084-181700-
WESTERN UPPER MICHIGAN

CITY           SKY/WX    TMP DP  RH WIND       PRES   REMARKS
IRON MOUNTAIN  CLOUDY    30  26  85 S6        29.88F WCI  24
HOUGHTON       SUNNY     37  23  56 W15G23    29.76S WCI  28
COPPER HARBOR    N/A     34  24  67 SW8       29.75F WCI  27
IRONWOOD       SUNNY     36  25  64 SW12      29.82S WCI  28
$$

ABBREVIATIONS USED IN REMARKS
   TC - TEMPERATURE IN CELSIUS
  WCI - WIND CHILL INDEX
   HX - HEAT INDEX
  VSB - VISIBILITY





USA.gov is the U.S. government's official web portal to all federal, state and local government web resources and services.